Wind_Speed
41 42 43 45 47 49 51 53 55 57 60 63 66 69 73 76 79 82 85 88 91 91 90 88 87 86 87 89 92 97 103 108 110 110 108 103 100 95 90 86 82 78 74
42 43 45 47 49 50 52 54 57 59 61 64 68 71 74 77 81 84 87 90 91 90 88 86 83 82 82 84 86 90 96 103 109 113 114 111 107 102 97 92 88 84 80
44 45 47 49 51 52 54 56 58 60 63 66 69 72 76 79 82 85 88 90 89 87 85 83 81 80 81 82 85 87 91 97 106 112 116 116 113 109 104 98 94 90 85
45 47 49 51 52 54 56 58 60 62 65 67 70 74 77 80 83 86 87 88 87 85 83 81 79 78 79 80 83 87 90 93 101 109 115 118 118 115 110 105 99 95 91
47 48 50 52 54 56 58 60 62 64 66 69 72 75 78 81 83 85 86 85 84 83 81 78 76 74 73 74 78 83 89 93 97 105 112 118 120 119 116 111 105 100 96
49 50 52 54 56 58 60 62 64 67 69 71 73 76 79 81 83 83 83 83 82 80 77 75 72 68 67 68 71 77 84 91 96 101 109 115 120 122 120 116 111 105 101
51 52 54 56 58 60 62 64 66 68 71 74 75 77 78 80 80 80 80 79 78 76 74 72 68 64 61 61 64 70 77 86 93 98 105 112 119 122 123 120 115 110 105
53 54 56 57 59 62 64 66 68 70 73 76 78 79 79 78 78 76 76 76 74 72 71 69 64 60 57 55 57 62 70 79 89 96 102 108 116 121 124 123 119 114 109
55 56 58 60 61 63 66 68 70 72 75 78 80 81 82 81 80 74 72 71 70 69 68 65 60 56 53 50 50 54 63 73 83 92 99 105 112 119 124 124 122 118 113
56 58 60 61 63 65 68 70 72 74 76 78 80 81 82 83 83 79 71 67 66 66 65 62 57 52 48 44 42 44 53 65 78 87 96 103 108 116 122 124 124 121 117
58 60 61 63 65 67 69 72 74 76 77 78 79 80 80 80 80 80 75 68 63 62 61 58 54 49 44 39 35 36 43 55 70 83 93 101 106 113 120 123 125 123 120
60 61 63 64 66 68 70 73 74 76 78 78 79 79 78 78 77 77 75 70 64 59 56 54 51 47 42 35 32 32 37 47 61 76 88 98 105 111 118 122 124 125 123
62 63 64 66 67 69 71 73 75 76 78 78 78 77 76 76 75 75 74 71 65 59 54 51 49 45 39 34 30 29 33 43 56 71 84 94 102 108 115 121 124 125 125
63 64 65 67 69 70 72 74 75 76 77 76 76 75 74 74 73 72 72 70 65 58 52 48 46 43 39 33 29 27 30 39 52 66 79 89 99 106 112 118 123 126 126
65 65 67 68 70 71 73 74 75 75 75 75 74 73 72 71 70 69 69 68 66 61 52 47 44 41 38 33 28 26 27 36 48 61 74 85 95 103 110 116 122 125 126
66 67 68 69 71 72 73 74 74 75 74 73 73 71 70 69 67 67 67 65 63 61 53 46 42 39 37 33 29 26 26 33 45 58 70 82 91 99 106 113 120 124 125
67 68 69 70 71 72 73 74 74 73 72 71 71 70 68 67 65 64 64 63 61 58 53 45 41 38 35 31 28 26 25 29 40 54 66 78 87 95 102 110 117 122 125
68 69 70 71 71 71 72 73 73 72 71 70 69 68 66 65 63 63 62 61 59 55 51 45 39 36 33 30 26 24 23 26 35 48 61 73 83 91 98 106 114 120 124
69 70 70 71 70 70 71 72 71 70 69 68 68 66 64 63 61 61 60 59 57 53 49 44 38 35 32 29 25 22 21 22 29 41 55 67 78 86 93 101 110 117 122
69 69 70 69 69 69 70 70 70 69 67 67 66 65 63 61 60 59 58 57 55 51 46 42 37 34 31 27 24 20 18 19 24 34 47 61 72 81 89 97 106 114 120
69 69 69 67 67 67 68 68 68 67 66 65 64 63 61 60 58 58 57 56 54 49 44 40 37 33 30 26 22 19 17 17 21 29 41 54 66 76 85 93 101 110 118
67 66 65 64 64 65 65 66 66 65 64 63 62 60 59 58 57 55 54 54 52 49 43 39 35 32 28 25 21 18 16 16 19 25 35 46 59 69 79 88 96 105 114
63 62 63 62 61 62 63 64 64 63 63 62 61 59 58 56 55 54 52 51 49 46 42 38 34 31 28 24 20 18 16 15 18 22 30 40 52 62 73 83 91 100 109
60 59 59 59 59 60 61 62 62 61 61 60 59 58 56 55 54 53 50 49 48 45 40 36 33 30 27 23 19 17 15 15 16 20 27 36 46 55 66 77 85 94 104
57 56 56 56 57 58 59 59 60 59 59 58 57 56 55 53 52 51 50 48 46 43 39 35 32 29 26 22 19 16 15 15 17 19 24 32 40 49 59 70 80 89 98
54 54 54 55 55 56 57 57 58 57 57 56 55 54 53 52 50 50 48 47 45 41 38 34 31 28 25 21 18 16 14 15 16 19 23 30 36 45 53 64 75 84 93
Wind_Direction
317 316 316 315 314 313 312 311 310 309 308 307 307 307 307 306 306 306 305 303 301 297 294 289 283 276 269 262 256 249 242 236 233 231 230 230 230 229 228 226 225 223 223
317 316 316 316 315 315 314 313 312 311 310 310 310 310 309 309 309 308 307 305 302 299 294 289 283 276 269 262 255 248 242 235 230 227 226 226 226 226 225 224 223 222 221
317 317 316 316 316 316 315 315 314 314 313 312 312 312 312 312 311 310 309 307 304 300 295 290 284 277 269 262 255 248 242 235 229 224 222 222 222 223 223 222 222 221 220
318 318 317 318 317 317 317 317 316 316 315 315 315 315 315 315 314 313 311 309 306 302 297 292 286 279 271 263 255 248 241 236 230 224 220 218 218 219 220 220 220 219 218
319 318 318 318 319 319 318 318 318 318 318 318 318 318 318 317 316 315 313 311 308 304 300 295 289 282 274 265 256 248 241 235 231 226 220 217 215 216 217 217 217 217 217
320 319 319 319 320 320 320 320 321 321 320 320 320 320 320 320 318 317 315 313 310 307 303 299 293 286 277 267 258 249 241 235 230 226 221 217 214 213 214 215 215 215 215
322 321 320 321 321 321 322 322 322 323 323 322 322 322 322 321 320 318 316 314 312 309 307 303 298 291 282 271 261 250 240 233 228 224 221 218 214 211 211 212 213 213 214
323 322 322 322 323 323 324 324 324 324 324 324 324 324 324 324 322 321 319 317 314 313 310 307 303 296 288 277 264 252 240 232 226 222 220 218 215 211 209 209 210 211 212
323 323 323 323 323 324 325 326 326 326 326 325 325 325 326 326 326 325 323 320 318 316 314 311 307 301 294 283 269 254 241 230 224 221 218 216 215 212 209 208 208 209 210
323 323 323 324 324 325 326 327 327 327 327 326 326 326 326 327 327 328 328 324 322 320 318 315 311 307 300 288 273 256 242 230 222 219 217 215 214 213 210 207 207 207 207
322 323 324 324 325 325 326 327 328 327 327 327 327 327 327 327 327 328 329 329 326 324 321 318 315 311 305 294 277 259 242 229 220 217 215 214 213 212 210 208 206 205 206
322 323 324 325 326 326 326 327 327 328 328 327 327 327 328 328 328 328 329 330 330 329 325 321 318 314 309 299 281 262 242 226 218 215 214 213 212 211 210 208 206 205 205
321 322 324 325 325 326 326 327 327 327 328 327 328 328 328 328 329 329 329 331 332 332 329 324 320 316 312 303 287 266 243 226 217 213 212 212 211 210 210 209 207 205 204
321 322 323 324 325 325 326 326 327 327 328 327 328 328 329 329 329 329 330 331 332 333 332 326 322 318 314 307 292 270 247 228 217 212 211 211 211 210 209 209 207 205 203
321 322 323 323 324 324 325 326 326 327 327 327 328 329 329 329 330 330 331 331 331 333 335 329 324 319 314 308 296 277 254 232 218 212 210 210 210 210 209 208 207 205 203
320 321 322 323 323 323 324 325 325 326 327 327 328 330 330 330 330 331 332 332 331 332 334 332 325 320 316 310 298 283 261 237 221 213 210 210 210 209 208 208 207 205 203
319 320 321 323 323 323 323 324 325 326 327 327 329 330 330 330 331 331 332 332 331 331 333 333 327 322 318 313 302 288 267 243 225 215 212 210 210 209 208 207 206 205 203
318 319 320 322 322 322 323 323 324 326 327 328 329 330 331 331 331 332 333 333 332 331 332 333 329 324 320 315 308 292 271 247 229 218 213 212 210 209 208 207 206 205 204
317 318 320 321 321 322 322 323 324 325 327 328 329 331 331 331 332 332 333 333 333 332 331 332 329 325 322 316 309 297 277 252 233 221 215 213 211 209 208 207 206 205 204
316 317 318 320 321 321 322 323 324 325 327 328 329 331 332 332 332 332 333 333 333 332 332 331 329 326 323 317 310 299 281 258 236 223 216 213 211 210 208 207 206 205 204
315 315 317 319 320 321 322 323 324 325 327 328 329 331 332 331 332 333 333 334 334 333 332 331 330 326 323 318 311 300 283 263 241 225 216 213 212 210 209 207 206 205 204
313 315 317 318 320 320 321 322 323 325 327 328 330 331 332 332 332 333 333 334 334 334 332 331 329 327 323 319 310 300 284 265 244 227 216 212 212 210 209 208 207 206 204
313 315 316 318 319 319 321 322 323 325 327 328 330 331 332 332 333 334 333 334 334 333 332 331 329 326 323 318 309 297 284 264 246 229 216 211 211 210 210 209 207 206 205
314 315 317 318 318 319 321 322 323 325 327 328 330 331 333 333 333 334 334 334 335 334 332 330 328 325 323 317 307 294 280 262 245 229 215 210 209 208 209 209 207 206 205
314 315 317 318 318 319 321 323 323 325 327 328 330 332 333 333 334 334 335 335 335 334 332 329 327 325 321 316 307 292 277 259 241 227 215 209 208 206 207 208 207 206 205
314 315 316 317 318 319 321 323 324 325 327 328 330 331 332 333 335 335 336 336 336 334 331 329 326 324 321 315 306 292 275 256 240 226 215 209 207 205 205 206 207 206 205
Height
5775 5769 5764 5758 5752 5746 5740 5734 5727 5721 5714 5706 5698 5689 5680 5670 5660 5649 5639 5627 5615 5604 5593 5585 5579 5574 5573 5575 5580 5588 5601 5618 5638 5657 5675 5690 5704 5718 5731 5743 5754 5765 5775
5767 5761 5755 5749 5743 5737 5730 5723 5716 5709 5701 5692 5683 5673 5662 5651 5639 5627 5615 5601 5587 5575 5564 5554 5548 5543 5541 5541 5545 5552 5562 5577 5595 5616 5638 5658 5675 5692 5707 5721 5734 5746 5758
5759 5753 5747 5740 5733 5726 5719 5712 5704 5696 5687 5678 5667 5656 5644 5631 5618 5604 5590 5575 5560 5547 5535 5524 5517 5512 5509 5509 5512 5519 5528 5540 5556 5576 5599 5622 5643 5662 5681 5697 5712 5726 5739
5750 5744 5737 5730 5723 5715 5708 5699 5691 5682 5673 5663 5652 5639 5626 5612 5597 5581 5565 5548 5533 5519 5507 5496 5486 5480 5477 5476 5479 5486 5495 5507 5522 5540 5561 5585 5608 5631 5652 5671 5689 5705 5720
5741 5734 5727 5719 5712 5703 5695 5686 5677 5668 5658 5648 5636 5622 5607 5592 5575 5558 5541 5523 5507 5491 5478 5467 5457 5449 5445 5443 5446 5452 5462 5475 5490 5507 5527 5549 5574 5598 5622 5643 5664 5682 5699
5732 5724 5716 5708 5700 5691 5682 5673 5663 5652 5642 5631 5619 5605 5589 5571 5552 5535 5517 5499 5482 5466 5452 5439 5429 5421 5416 5414 5415 5420 5429 5443 5459 5476 5495 5517 5541 5566 5591 5615 5638 5658 5677
5722 5714 5705 5697 5688 5679 5669 5659 5648 5637 5624 5613 5601 5589 5574 5554 5534 5515 5496 5478 5460 5444 5429 5415 5404 5395 5390 5387 5387 5390 5399 5412 5429 5447 5467 5488 5510 5535 5560 5586 5611 5633 5654
5712 5703 5694 5685 5675 5666 5655 5645 5633 5621 5608 5594 5581 5569 5557 5543 5523 5501 5479 5459 5441 5425 5409 5394 5383 5373 5366 5362 5361 5364 5371 5384 5401 5420 5440 5461 5483 5506 5531 5557 5583 5608 5630
5701 5692 5683 5673 5663 5652 5641 5630 5618 5605 5592 5576 5560 5545 5531 5518 5505 5491 5468 5445 5425 5408 5391 5376 5365 5354 5346 5341 5339 5341 5347 5359 5376 5395 5415 5436 5457 5480 5504 5530 5557 5582 5606
5691 5681 5671 5661 5650 5639 5628 5615 5603 5589 5575 5560 5543 5526 5508 5491 5475 5466 5455 5433 5413 5394 5376 5361 5349 5338 5330 5323 5321 5322 5327 5337 5354 5372 5391 5412 5434 5456 5480 5505 5531 5557 5582
5680 5670 5660 5649 5638 5626 5614 5601 5588 5574 5559 5544 5528 5511 5493 5474 5455 5438 5429 5418 5402 5382 5363 5348 5335 5325 5317 5310 5307 5308 5311 5319 5333 5350 5369 5389 5410 5432 5455 5480 5506 5532 5558
5668 5658 5648 5637 5625 5613 5601 5587 5573 5559 5544 5528 5512 5495 5478 5460 5443 5424 5409 5397 5386 5372 5354 5338 5325 5315 5307 5300 5296 5296 5298 5304 5315 5330 5348 5367 5387 5409 5433 5458 5483 5509 5535
5657 5647 5636 5624 5613 5600 5587 5574 5560 5545 5530 5514 5498 5481 5463 5446 5428 5411 5395 5382 5370 5360 5345 5330 5316 5306 5298 5292 5287 5286 5287 5292 5300 5312 5328 5347 5367 5388 5412 5436 5461 5487 5513
5645 5634 5624 5612 5600 5588 5575 5561 5547 5532 5517 5501 5485 5469 5452 5434 5417 5400 5383 5368 5357 5349 5337 5322 5309 5298 5290 5284 5280 5277 5278 5282 5288 5298 5313 5329 5348 5369 5392 5417 5441 5466 5493
5632 5622 5611 5599 5587 5575 5562 5549 5535 5520 5505 5489 5473 5457 5441 5424 5407 5391 5374 5358 5344 5334 5328 5315 5303 5292 5283 5278 5273 5270 5270 5272 5278 5286 5299 5314 5331 5351 5373 5397 5423 5449 5476
5620 5609 5598 5587 5575 5563 5550 5537 5523 5508 5493 5478 5462 5447 5430 5414 5399 5383 5367 5352 5337 5324 5316 5308 5296 5287 5278 5271 5267 5263 5262 5264 5268 5276 5287 5301 5317 5336 5358 5381 5407 5434 5461
5608 5597 5586 5575 5563 5550 5538 5525 5511 5497 5482 5467 5451 5437 5421 5405 5391 5375 5361 5346 5332 5318 5308 5301 5290 5282 5273 5267 5262 5258 5257 5257 5261 5268 5277 5290 5306 5324 5344 5367 5392 5418 5445
5595 5585 5574 5562 5551 5538 5526 5513 5500 5486 5471 5457 5442 5427 5412 5397 5383 5368 5354 5340 5327 5314 5302 5294 5286 5277 5269 5262 5257 5254 5252 5252 5255 5261 5270 5281 5296 5313 5333 5355 5379 5405 5431
5582 5572 5561 5550 5539 5527 5514 5502 5489 5475 5461 5447 5432 5418 5403 5389 5375 5361 5347 5334 5321 5309 5297 5288 5281 5273 5266 5259 5254 5250 5248 5248 5250 5255 5263 5274 5288 5304 5323 5344 5367 5391 5417
5569 5559 5549 5538 5527 5515 5503 5491 5478 5465 5451 5437 5423 5409 5395 5381 5368 5355 5342 5329 5316 5304 5293 5283 5276 5269 5262 5256 5251 5247 5246 5245 5246 5250 5257 5267 5280 5296 5314 5334 5357 5380 5405
5556 5546 5536 5525 5515 5504 5492 5480 5468 5455 5441 5428 5414 5400 5386 5373 5360 5347 5334 5321 5309 5298 5288 5279 5271 5265 5259 5253 5248 5245 5243 5242 5244 5246 5252 5262 5274 5290 5306 5325 5345 5368 5392
5543 5533 5523 5513 5503 5492 5481 5469 5457 5445 5432 5419 5406 5392 5379 5366 5353 5340 5328 5315 5303 5292 5283 5275 5267 5261 5255 5250 5246 5243 5241 5241 5242 5245 5249 5258 5268 5283 5298 5317 5336 5357 5380
5530 5520 5511 5501 5491 5480 5470 5458 5447 5435 5423 5410 5398 5385 5372 5359 5347 5335 5323 5311 5300 5288 5279 5271 5264 5258 5252 5248 5244 5241 5239 5239 5240 5242 5247 5254 5264 5277 5291 5308 5327 5347 5369
5517 5508 5499 5490 5480 5470 5459 5448 5437 5426 5414 5401 5389 5377 5365 5352 5340 5328 5318 5307 5295 5284 5276 5268 5261 5255 5249 5245 5241 5239 5238 5238 5238 5240 5244 5251 5259 5271 5284 5301 5319 5338 5359
5505 5496 5488 5479 5469 5459 5449 5439 5428 5417 5405 5393 5381 5369 5357 5346 5334 5323 5312 5301 5291 5280 5271 5263 5257 5251 5246 5241 5238 5237 5236 5236 5237 5239 5243 5248 5255 5266 5278 5294 5311 5329 5349
5492 5485 5477 5468 5459 5449 5439 5429 5419 5409 5398 5386 5374 5362 5351 5340 5328 5316 5306 5295 5285 5276 5267 5260 5253 5247 5242 5238 5236 5234 5233 5233 5235 5237 5241 5246 5252 5261 5273 5286 5302 5320 5339